Location: M.A.R.S.Observatory
(35.4031°N, 81.5481°W)
Time: 05:46:01
(UTC-04:00)

SL-8 R/B - Visible Passes

Search period start: 25 August 2016 00:00
Search period end: 04 September 2016 00:00
Orbit: 657 x 668 km, 48.4° (Epoch: 24 August)

Date Brightness Start Highest point End Pass type
(mag) Time Alt. Az. Time Alt. Az. Time Alt. Az.
28 Aug 6.7 06:11:47 10° SE 06:12:07 10° SE 06:12:27 10° ESE visible
30 Aug 6.4 05:30:28 10° SE 05:31:52 11° SE 05:33:15 10° ESE visible
31 Aug 5.2 05:58:23 10° SSW 06:02:34 31° SE 06:06:47 10° ENE visible
01 Sep 6.2 04:49:45 10° SSE 04:51:36 12° SE 04:53:32 10° ESE visible
01 Sep 3.8 06:28:45 10° SW 06:33:32 81° SE 06:38:21 10° NE visible
02 Sep 5.0 05:20:01 22° S 05:22:20 34° SE 05:26:38 10° ENE visible
03 Sep 6.2 04:12:11 13° ESE 04:12:11 13° ESE 04:13:40 10° E visible
03 Sep 3.7 05:50:12 22° SW 05:53:18 86° SE 05:58:08 10° NE visible
